TimeMDT,TemperatureF,Dew PointF,Humidity,Sea Level PressureIn,VisibilityMPH,Wind Direction,Wind SpeedMPH,Gust SpeedMPH,PrecipitationIn,Events,Conditions,WindDirDegrees,DateUTC
12:53 AM,57.0,51.1,81,29.98,10.0,SE,5.8,-,N/A,,Mostly Cloudy,140,2013-08-29 06:53:00
1:53 AM,54.0,48.9,83,29.98,10.0,SSE,9.2,-,N/A,,Clear,150,2013-08-29 07:53:00
2:53 AM,54.0,46.9,77,29.98,10.0,SE,3.5,-,N/A,,Clear,130,2013-08-29 08:53:00
3:53 AM,53.1,46.9,80,30.04,10.0,SSE,9.2,-,N/A,,Clear,150,2013-08-29 09:53:00
4:53 AM,53.1,46.0,77,30.03,10.0,SSE,8.1,-,N/A,,Clear,160,2013-08-29 10:53:00
5:53 AM,50.0,45.0,83,30.05,10.0,SSE,6.9,-,N/A,,Clear,150,2013-08-29 11:53:00
6:53 AM,51.1,45.0,80,30.07,10.0,SSE,3.5,-,N/A,,Clear,150,2013-08-29 12:53:00
7:53 AM,59.0,46.0,62,30.07,10.0,SE,3.5,-,N/A,,Clear,130,2013-08-29 13:53:00
8:53 AM,64.9,48.9,56,30.05,10.0,South,3.5,-,N/A,,Clear,190,2013-08-29 14:53:00
9:53 AM,70.0,48.0,46,30.06,10.0,Calm,Calm,-,N/A,,Clear,0,2013-08-29 15:53:00
10:53 AM,77.0,41.0,28,30.02,10.0,NNW,5.8,-,N/A,,Clear,340,2013-08-29 16:53:00
11:53 AM,79.0,43.0,28,30.03,10.0,Variable,6.9,-,N/A,,Clear,0,2013-08-29 17:53:00
12:53 PM,80.1,42.1,26,30.02,10.0,North,10.4,-,N/A,,Clear,10,2013-08-29 18:53:00
1:53 PM,82.9,42.1,24,30.01,10.0,NNE,8.1,-,N/A,,Clear,20,2013-08-29 19:53:00
2:53 PM,81.0,41.0,24,30.00,10.0,NNE,10.4,16.1,N/A,,Clear,30,2013-08-29 20:53:00
3:53 PM,81.0,41.0,24,30.01,10.0,East,8.1,-,N/A,,Overcast,80,2013-08-29 21:53:00
4:53 PM,78.1,42.1,28,30.03,10.0,WNW,4.6,-,0.00,Rain,Light Rain,290,2013-08-29 22:53:00
5:53 PM,77.0,43.0,30,30.05,10.0,Calm,Calm,-,0.00,,Overcast,0,2013-08-29 23:53:00
6:53 PM,73.0,46.0,38,30.06,10.0,SSW,9.2,-,N/A,,Scattered Clouds,210,2013-08-30 00:53:00
7:53 PM,69.1,46.0,44,30.05,10.0,South,13.8,25.3,N/A,,Partly Cloudy,190,2013-08-30 01:53:00
8:53 PM,64.0,46.9,54,30.06,10.0,Calm,Calm,-,N/A,,Partly Cloudy,0,2013-08-30 02:53:00
9:53 PM,62.1,46.9,58,30.06,10.0,WSW,5.8,-,N/A,,Partly Cloudy,240,2013-08-30 03:53:00
10:53 PM,60.1,48.0,64,30.03,10.0,South,6.9,-,N/A,,Clear,180,2013-08-30 04:53:00
11:53 PM,57.0,48.0,72,30.03,10.0,SSE,8.1,-,N/A,,Clear,150,2013-08-30 05:53:00